TimeCST,TemperatureF,Dew PointF,Humidity,Sea Level PressureIn,VisibilityMPH,Wind Direction,Wind SpeedMPH,Gust SpeedMPH,PrecipitationIn,Events,Conditions,WindDirDegrees,DateUTC
12:55 AM,55.4,35.6,47,30.20,10.0,NNE,18.4,28.8,N/A,,Overcast,20,2012-11-23 06:55:00
1:15 AM,53.6,33.8,47,30.22,10.0,NNE,20.7,27.6,N/A,,Mostly Cloudy,20,2012-11-23 07:15:00
1:35 AM,53.6,26.6,35,30.23,10.0,North,13.8,20.7,N/A,,Mostly Cloudy,10,2012-11-23 07:35:00
1:56 AM,51.8,28.4,41,30.24,10.0,NNE,16.1,21.9,N/A,,Scattered Clouds,20,2012-11-23 07:56:00
2:15 AM,51.8,28.4,41,30.25,10.0,NNE,10.4,-,N/A,,Scattered Clouds,20,2012-11-23 08:15:00
2:35 AM,51.8,28.4,41,30.26,10.0,North,12.7,-,N/A,,Scattered Clouds,10,2012-11-23 08:35:00
2:56 AM,51.8,30.2,44,30.27,10.0,North,11.5,-,N/A,,Mostly Cloudy,10,2012-11-23 08:56:00
3:15 AM,50.0,30.2,47,30.27,10.0,NNE,8.1,20.7,N/A,,Overcast,20,2012-11-23 09:15:00
3:35 AM,48.2,30.2,50,30.28,10.0,North,9.2,-,N/A,,Mostly Cloudy,10,2012-11-23 09:35:00
4:15 AM,46.4,28.4,50,30.29,10.0,North,8.1,-,N/A,,Clear,10,2012-11-23 10:15:00
4:35 AM,46.4,28.4,50,30.30,10.0,North,9.2,-,N/A,,Clear,360,2012-11-23 10:35:00
4:55 AM,46.4,28.4,50,30.31,10.0,North,6.9,-,N/A,,Clear,360,2012-11-23 10:55:00
5:15 AM,44.6,30.2,57,30.32,10.0,North,6.9,-,N/A,,Clear,10,2012-11-23 11:15:00
5:35 AM,44.6,30.2,57,30.32,10.0,North,4.6,-,N/A,,Clear,10,2012-11-23 11:35:00
5:55 AM,42.8,30.2,61,30.32,10.0,NNW,3.5,-,N/A,,Clear,340,2012-11-23 11:55:00
6:16 AM,42.8,30.2,61,30.33,10.0,NNW,3.5,-,N/A,,Clear,340,2012-11-23 12:16:00
6:35 AM,39.2,30.2,70,30.34,10.0,NW,3.5,-,N/A,,Clear,320,2012-11-23 12:35:00
6:55 AM,41.0,30.2,65,30.35,10.0,NW,4.6,-,N/A,,Clear,320,2012-11-23 12:55:00
7:15 AM,39.2,28.4,65,30.36,10.0,NW,5.8,-,N/A,,Clear,320,2012-11-23 13:15:00
7:35 AM,39.2,30.2,70,30.36,10.0,WNW,4.6,-,N/A,,Clear,300,2012-11-23 13:35:00
7:55 AM,42.8,30.2,61,30.37,10.0,NW,5.8,-,N/A,,Clear,320,2012-11-23 13:55:00
8:16 AM,42.8,32.0,66,30.38,10.0,NW,6.9,-,N/A,,Clear,320,2012-11-23 14:16:00
8:35 AM,44.6,32.0,61,30.38,10.0,NNW,10.4,16.1,N/A,,Clear,330,2012-11-23 14:35:00
8:55 AM,44.6,30.2,57,30.39,10.0,NNW,16.1,20.7,N/A,,Clear,340,2012-11-23 14:55:00
9:35 AM,44.6,24.8,46,30.40,10.0,NNW,17.3,23.0,N/A,,Clear,340,2012-11-23 15:35:00
9:55 AM,44.6,21.2,39,30.41,10.0,NNW,17.3,25.3,N/A,,Clear,340,2012-11-23 15:55:00
10:35 AM,44.6,24.8,46,30.42,10.0,NNW,11.5,17.3,N/A,,Clear,330,2012-11-23 16:35:00
10:55 AM,46.4,24.8,43,30.42,10.0,NNW,11.5,19.6,N/A,,Clear,330,2012-11-23 16:55:00
11:35 AM,44.6,17.6,34,30.42,10.0,NW,16.1,23.0,N/A,,Clear,320,2012-11-23 17:35:00
11:55 AM,44.6,19.4,37,30.42,10.0,NNW,11.5,18.4,N/A,,Clear,330,2012-11-23 17:55:00
12:35 PM,44.6,19.4,37,30.41,10.0,NW,16.1,21.9,N/A,,Clear,310,2012-11-23 18:35:00
12:55 PM,44.6,19.4,37,30.40,10.0,NNW,11.5,21.9,N/A,,Clear,330,2012-11-23 18:55:00
1:35 PM,42.8,17.6,36,30.40,10.0,NW,11.5,20.7,N/A,,Clear,320,2012-11-23 19:35:00
2:15 PM,44.6,19.4,37,30.39,10.0,NW,15.0,18.4,N/A,,Clear,310,2012-11-23 20:15:00
2:35 PM,44.6,19.4,37,30.39,10.0,NNW,15.0,21.9,N/A,,Clear,330,2012-11-23 20:35:00
2:55 PM,44.6,17.6,34,30.40,10.0,NNW,9.2,17.3,N/A,,Clear,330,2012-11-23 20:55:00
3:15 PM,44.6,19.4,37,30.40,10.0,NNW,11.5,17.3,N/A,,Clear,330,2012-11-23 21:15:00
3:35 PM,42.8,17.6,36,30.40,10.0,NNW,10.4,-,N/A,,Clear,330,2012-11-23 21:35:00
3:55 PM,42.8,17.6,36,30.40,10.0,NNW,13.8,18.4,N/A,,Clear,340,2012-11-23 21:55:00
4:15 PM,42.8,17.6,36,30.40,10.0,NW,9.2,-,N/A,,Clear,320,2012-11-23 22:15:00
4:36 PM,41.0,19.4,42,30.40,10.0,NW,9.2,-,N/A,,Clear,320,2012-11-23 22:36:00
4:55 PM,41.0,17.6,39,30.40,10.0,NNW,10.4,-,N/A,,Clear,330,2012-11-23 22:55:00
5:15 PM,39.2,19.4,45,30.40,10.0,NW,10.4,-,N/A,,Clear,320,2012-11-23 23:15:00
5:35 PM,37.4,19.4,48,30.40,10.0,NW,5.8,-,N/A,,Clear,320,2012-11-23 23:35:00
5:55 PM,37.4,19.4,48,30.40,10.0,NNW,5.8,-,N/A,,Clear,330,2012-11-23 23:55:00
6:15 PM,37.4,19.4,48,30.40,10.0,NW,4.6,-,N/A,,Clear,320,2012-11-24 00:15:00
6:35 PM,37.4,19.4,48,30.41,10.0,NNW,4.6,-,N/A,,Clear,330,2012-11-24 00:35:00
6:55 PM,35.6,19.4,52,30.40,10.0,NW,4.6,-,N/A,,Clear,320,2012-11-24 00:55:00
7:35 PM,35.6,19.4,52,30.41,10.0,NNW,5.8,-,N/A,,Clear,340,2012-11-24 01:35:00
7:55 PM,35.6,19.4,52,30.41,10.0,NW,3.5,-,N/A,,Clear,320,2012-11-24 01:55:00
8:15 PM,35.6,19.4,52,30.40,10.0,NNW,3.5,-,N/A,,Clear,330,2012-11-24 02:15:00
8:35 PM,33.8,19.4,56,30.40,10.0,Calm,Calm,-,N/A,,Clear,0,2012-11-24 02:35:00
8:55 PM,33.8,19.4,56,30.41,10.0,Calm,Calm,-,N/A,,Clear,0,2012-11-24 02:55:00
9:15 PM,33.8,19.4,56,30.41,10.0,NW,3.5,-,N/A,,Clear,310,2012-11-24 03:15:00
9:36 PM,32.0,19.4,60,30.41,10.0,Calm,Calm,-,N/A,,Clear,0,2012-11-24 03:36:00
9:55 PM,32.0,19.4,60,30.41,10.0,NW,3.5,-,N/A,,Clear,320,2012-11-24 03:55:00
10:55 PM,32.0,19.4,60,30.40,10.0,NNW,3.5,-,N/A,,Clear,340,2012-11-24 04:55:00
11:15 PM,32.0,17.6,55,30.40,10.0,NNW,4.6,-,N/A,,Clear,340,2012-11-24 05:15:00
11:35 PM,30.2,17.6,60,30.40,10.0,North,3.5,-,N/A,,Clear,350,2012-11-24 05:35:00
11:55 PM,30.2,17.6,60,30.40,10.0,NNW,3.5,-,N/A,,Clear,340,2012-11-24 05:55:00